sat.trackr.live / text

‹ back to catalog

KUIPER-00127

NORAD 65956 · 2025-228K

PAYLOAD ACTIVE UNKNOWN

§ Identity

Operator
Country
US
Launch date
2025-10-14
Launch site
AFETR
Launch vehicle
Mass (kg)
RCS (m²)

External: N2YO · Heavens-Above · Gunter

§ Orbital elements

Epoch: 2026-05-25T00:41:49.151040Z

Period
97.30 min
Inclination
51.9017°
Eccentricity
0.0001279
Mean motion
14.79932476 rev/d
Perigee alt
628.6 km
Apogee alt
630.4 km
Semi-major
7,007.7 km
B*
3.2716e-5
RAAN
15.4867°
Arg perigee
109.7837°
Mean anomaly
250.3263°
Rev number
3,464

§ Raw data

KUIPER-001271 65956U 25228K   26145.02904110  .00000028  00000+0  32716-4 0  99972 65956  51.9017  15.4867 0001279 109.7837 250.3263 14.79932476 34641

JSON: /api/v1/satellites/65956 · /tle

For live sub-satellite position, see the globe view (requires WebGL).

§ Visibility from observer

Set your observer location to see the next 7 days of passes ≥ 10°. The values pass through the URL so the page stays shareable.

No JS? Fill the form by hand. The geolocation button needs JavaScript.